Kezdőlap
METAR-TAF:

METAR-TAF

Repülőterek :

Tekamah Municipal Airport

Tekamah, Nebraska, Amerikai Egyesült Államok

földrajzi szélesség: 41-46-01N, földrajzi hosszúság: 096-10-40W, magasság: 313 m

Jelenlegi meteorológiai megfigyelések

A jelentés 25 perccel ezelõtt készült, 21:54 UTC
Észak-északnyugati szél 13 kt
Hőmérséklet 26°C
Páratartalom 54%
Légköri nyomás 1003 hPa
Látótávolság: 16.1 km
Derült ég

METAR: KTQE 262154Z AUTO 34013KT 10SM CLR 26/16 A2963 RMK AO2 LTG DSNT E SLP021 T02610156

Idő: 17:19 (22:19 UTC)


TAF: hiányzik

Meteorológiai megfigyelések és előrejelzések több, mint 4000 repülőtéren (METAR és TAF jelentéseket).

A térképen piros és sárga pontok jelzik az elérhető meteorológiai állomásokat.

Mozgassa az egeret a pont fölött, hogy megjelenjen az állomás neve.

Azután kattintson az időjárási megfigyelések és előrejelzések megtekintéséhez.

A térkép megváltoztatása: kattintson a fekete keresztel jelölt zöld gombra ráközelítéshez, a vonallal jelölt zöld gombra távolításhoz, vagy a zöld nyilakra a szomszédos térképek eléréséhez.


METAR-TAF: